NOAA NWS Hourly Roundups by Site

Regional Weather Roundup for Bismarck, ND

To Select Another Site Choose from List

Select Site:  

000
ASUS43 KBIS 260710
RWRBIS

NWR BROADCAST TEXT
NATIONAL WEATHER SERVICE BISMARCK ND
200 AM CDT TUE MAR 26 2019

NOTE: "FAIR" INDICATES FEW OR NO CLOUDS BELOW 12,000 FEET WITH NO
SIGNIFICANT WEATHER AND/OR OBSTRUCTIONS TO VISIBILITY.


CITY           SKY/WX    TMP DP  RH WIND       PRES   REMARKS
WILLISTON      CLOUDY    40  33  76 S10       30.11F
MINOT          CLOUDY    36  31  82 S9        30.18F
MINOT AFB      CLOUDY    35  32  90 S9        30.17F
BISMARCK       CLOUDY    33  30  88 SE7       30.25F
DICKINSON      CLOUDY    33  31  92 S14       30.13F
GARRISON         N/A     32  30  92 S7        30.20F
HETTINGER ARPT CLOUDY    32  31  96 SE6       30.19F FOG
JAMESTOWN      CLOUDY    30  28  92 S8        30.28F
CARRINGTON     CLOUDY    30  28  93 S9        30.28F
HAZEN          CLOUDY    36  34  93 S8        30.22F
LINTON           N/A     32  32 100 S14       30.28F
MANDAN         CLOUDY    32  32 100 S10       30.24F
OAKES          CLOUDY    27  27 100 SE7       30.33F WCI  19
RUGBY          CLOUDY    28  28 100 S10       30.22F WCI  19
STANLEY        CLOUDY    34  34 100 S13G18    30.13F
TIOGA          CLOUDY    34  34 100 S9        30.13F
WATFORD CITY   CLOUDY    37  37 100 S10       30.13S
$$

CITY           SKY/WX    TMP DP  RH WIND       PRES   REMARKS
GRAND FORKS    PTCLDY    21  16  81 S6        30.33F WCI  13
GRAND FORKS AF PTCLDY    19  15  86 S9        30.32F WCI   8
DEVILS LAKE    CLOUDY    28  23  81 S12       30.26F WCI  18
FARGO          PTCLDY    22  19  89 S6        30.36F WCI  14
CANDO          CLOUDY    27  27 100 S8        30.26F WCI  18
CAVALIER       FAIR      21  16  79 S7        30.30F WCI  13
GRAFTON        FAIR      18  16  93 S8        30.34F WCI   7
GWINNER          N/A     28  28 100 S3        30.34F
LANGDON        FAIR      19  19 100 S15       30.24F WCI   5
ROLLA          CLOUDY    27  25  93 S13       30.20F WCI  16
WALHALLA       FAIR      25  16  68 SE7       30.28F WCI  17
$$

CITY           SKY/WX    TMP DP  RH WIND       PRES   REMARKS
ABERDEEN       CLOUDY    27  24  89 CALM      30.34F
MOBRIDGE       FOG       33  30  88 S9        30.25F VSB 1/2
RAPID CITY     CLOUDY    34  33  96 S10       30.20F FOG
GLASGOW        CLEAR     35  31  85 SE14      30.02F
SIDNEY         CLOUDY    39  36  89 S7        30.11F
WOLF POINT     CLEAR     33  30  88 NE5       30.07F
GLENDIVE       PTCLDY    35  33  92 S10       30.10F
MILES CITY     MOCLDY    36  35  96 S12       30.07F
BAKER          FOG       36  36 100 SE13      30.12F VSB 1/4
$$

CITY           SKY/WX    TMP DP  RH WIND       PRES   REMARKS
BILLINGS       MOCLDY    44  33  65 SW10      30.05F
GREAT FALLS    CLOUDY    44  27  51 S17       29.95F
REGINA         CLOUDY    36  34  93 S7        30.03F
ESTEVAN        CLOUDY    36  32  87 S9        30.10F
$$



 

View Past Reports for Bismarck, ND.

Products Courtesy of NOAA-NWS
NWS Information Parsing Script by Ken True at Saratoga Weather - Script by SE Lincoln Weather.